Погода в Площеве

Россия / Владимирская область     56°15′30″N   38°27′01″E
темп.,
°C
ветер,
м/с
пор.,
м/с
влажн.,
%
обл.,
%
осадки,
мм/ч
давл.,
гПа
погр.,
м
18 апреля, вс
вс1800:00+7всв51365100 0.0 1022496
03:00+5всв5147484 0.0 1022441
06:00+4всв5147648 0.0 1022507
09:00+8всв6105845 0.0 1022825
12:00+12в6846100 0.0 10221574
15:00+12в5946100 0.0 10211854
18:00+9юв3871100 0.0 1023770
21:00+7св117999 0.0 102428
19 апреля, пн
пн1900:00+7всв5118191 0.0 1024716
03:00+5всв51187100 0.4 1025570
06:00+4всв51087100 0.3 1025529
09:00+4всв5107490 0.8 1026606
12:00+8всв685794 0.0 10251202
15:00+7в5861100 0.1 10261194
18:00+5в41074100 0.6 10261187
21:00+4вюв41060100 0.6 1026854
20 апреля, вт
вт2000:00+4в51058100 0.0 1025915
03:00+2всв5118699 0.0 1025668
06:00+1в51295100 0.4 1024574
09:00+2в51287100 0.4 1024642
12:00+5в61072100 0.0 1024731
15:00+6в51080100 0.0 1022953
18:00+5в51390100 0.2 10201030
21:00+7в61570100 0.3 10171126
21 апреля, ср
ср2100:00+5в71667100 0.2 10131101
03:00+2в71896100 3.6 10091003
06:00+3вюв71695100 3.8 10061016
09:00+4вюв71593100 4.2 1005913
12:00+5вюв71594100 2.6 10031162
15:00+7ю61394100 4.3 10031353
18:00+5ю71284100 0.3 10051307
21:00+4ю71485100 0.4 10071429
22 апреля, чт
чт2200:00+3ююз71393100 0.1 10101173
03:00+3ююз51196100 0.2 10131042
06:00+3юз51197100 0.3 10151005
09:00+5юз4987100 0.4 1018923
12:00+9юз4767100 0.1 10191234
15:00+11юз465984 0.3 10201323
18:00+10ююз256740 0.3 1021152
21:00+7ююз22815 0.3 102315